{"data":{"norad_id":65638,"epoch":"2026-05-25T04:01:09.672384Z","epoch_age_seconds":74653,"freshness":"FRESH","line1":"1 65638U 25210S   26145.16747306  .00035484  00000+0  10560-2 0  9997","line2":"2 65638  53.1599 310.8927 0001533  87.8113 272.3066 15.34411308 39459","mean_motion":15.34411308,"eccentricity":0.0001533,"inclination_deg":53.1599,"raan_deg":310.8927,"arg_perigee_deg":87.8113,"mean_anomaly_deg":272.3066,"bstar":0.001056,"rev_number":3945,"period_min":93.847066460748,"perigee_km":461.62093499798,"apogee_km":463.71832631094,"semimajor_km":6840.8066306545,"source":"CELESTRAK","updated_at":"2026-05-25T13:38:20.884436Z"}}